SHT21A EGJB-EGLL

Flight info

Callsign SHT21A
Flight time 0h 42m
Altitude 19000
Route ORIST L982 ROXOG
Aircraft A320/M-SDE3FGHIRWY/LB1

Departure

Time 2026-05-04 11:52
Airport Guernsey Airport (EGJB)

Arrival

Time 2026-05-04 12:34
Airport London Heathrow Airport (EGLL)
Time Latitude Longitude Altitude Speed Heading
2026-05-04 11:20 49.43254 -2.59685 326 ft 0 kts 178°
2026-05-04 11:44 49.43275 -2.59687 323 ft 4 kts 178°
2026-05-04 11:44 49.43302 -2.59688 325 ft 4 kts 178°
2026-05-04 11:44 49.43328 -2.59690 326 ft 4 kts 172°
2026-05-04 11:44 49.43351 -2.59703 321 ft 4 kts 129°
2026-05-04 11:45 49.43359 -2.59732 322 ft 1 kts 88°
2026-05-04 11:47 49.43359 -2.59730 322 ft 1 kts 88°
2026-05-04 11:47 49.43361 -2.59674 323 ft 9 kts 88°
2026-05-04 11:47 49.43364 -2.59558 327 ft 11 kts 87°
2026-05-04 11:47 49.43367 -2.59437 326 ft 12 kts 87°
2026-05-04 11:48 49.43371 -2.59310 331 ft 12 kts 87°
2026-05-04 11:48 49.43401 -2.59201 331 ft 11 kts 24°
2026-05-04 11:48 49.43417 -2.59197 331 ft 0 kts 360°
2026-05-04 11:49 49.43418 -2.59197 331 ft 1 kts 360°
2026-05-04 11:49 49.43443 -2.59197 331 ft 5 kts 359°
2026-05-04 11:49 49.43483 -2.59199 334 ft 6 kts 358°
2026-05-04 11:49 49.43520 -2.59234 333 ft 7 kts 290°
2026-05-04 11:50 49.43522 -2.59264 334 ft 0 kts 271°
2026-05-04 11:51 49.43522 -2.59266 334 ft 2 kts 271°
2026-05-04 11:51 49.43517 -2.59523 329 ft 65 kts 267°
2026-05-04 11:51 49.43484 -2.60652 315 ft 142 kts 268°
2026-05-04 11:52 49.43431 -2.62298 852 ft 154 kts 266°
2026-05-04 11:52 49.43378 -2.63933 1692 ft 152 kts 267°
2026-05-04 11:52 49.43329 -2.65642 1966 ft 171 kts 267°
2026-05-04 11:52 49.43275 -2.67593 2205 ft 195 kts 266°
2026-05-04 11:53 49.43220 -2.69833 2363 ft 227 kts 269°
2026-05-04 11:53 49.43542 -2.72181 3095 ft 227 kts 301°
2026-05-04 11:53 49.44687 -2.73778 3940 ft 227 kts 339°
2026-05-04 11:53 49.46235 -2.73929 4707 ft 226 kts 17°
2026-05-04 11:55 49.57980 -2.66739 9276 ft 293 kts 22°
2026-05-04 11:55 49.59889 -2.65576 10047 ft 297 kts 23°
2026-05-04 11:56 49.61828 -2.64391 10754 ft 301 kts 23°
2026-05-04 11:56 49.63763 -2.63207 11452 ft 305 kts 23°
2026-05-04 11:56 49.65752 -2.61989 12157 ft 309 kts 23°
2026-05-04 11:56 49.67763 -2.60746 12863 ft 313 kts 26°
2026-05-04 11:57 49.69649 -2.59058 13547 ft 314 kts 40°
2026-05-04 11:57 49.71256 -2.56716 13917 ft 326 kts 54°
2026-05-04 11:57 49.72551 -2.53727 14048 ft 344 kts 62°
2026-05-04 11:57 49.73830 -2.50483 14313 ft 359 kts 61°
2026-05-04 11:58 49.75129 -2.47213 14841 ft 364 kts 61°
2026-05-04 11:58 49.76472 -2.43855 15429 ft 368 kts 61°
2026-05-04 11:58 49.77826 -2.40479 16019 ft 371 kts 60°
2026-05-04 11:58 49.79191 -2.37076 16609 ft 374 kts 60°
2026-05-04 11:59 49.80565 -2.33646 17207 ft 377 kts 60°
2026-05-04 11:59 49.81948 -2.30184 17803 ft 380 kts 60°
2026-05-04 11:59 49.83341 -2.26689 18393 ft 383 kts 60°
2026-05-04 11:59 49.84270 -2.24353 18723 ft 385 kts 60°
2026-05-04 12:00 49.85680 -2.20802 18963 ft 388 kts 60°
2026-05-04 12:00 49.87105 -2.17207 19024 ft 396 kts 60°
2026-05-04 12:00 49.88555 -2.13543 19035 ft 400 kts 60°
2026-05-04 12:00 49.90011 -2.09861 19038 ft 401 kts 60°
2026-05-04 12:01 49.91472 -2.06165 19038 ft 402 kts 60°
2026-05-04 12:01 49.92930 -2.02472 19036 ft 402 kts 60°
2026-05-04 12:02 50.03074 -1.82085 19020 ft 406 kts 31°
2026-05-04 12:03 50.05585 -1.80055 19024 ft 407 kts 28°
2026-05-04 12:03 50.08079 -1.78090 19025 ft 407 kts 28°
2026-05-04 12:03 50.10606 -1.76087 19029 ft 408 kts 28°
2026-05-04 12:03 50.13018 -1.73784 19032 ft 406 kts 38°
2026-05-04 12:04 50.15205 -1.70999 19034 ft 406 kts 41°
2026-05-04 12:04 50.17375 -1.68188 19035 ft 406 kts 41°
2026-05-04 12:04 50.19557 -1.65387 19030 ft 406 kts 41°
2026-05-04 12:04 50.21742 -1.62583 19037 ft 406 kts 41°
2026-05-04 12:05 50.23925 -1.59774 19028 ft 406 kts 41°
2026-05-04 12:05 50.26223 -1.57197 19027 ft 408 kts 32°
2026-05-04 12:05 50.28774 -1.55251 19032 ft 409 kts 21°
2026-05-04 12:05 50.31486 -1.53872 19034 ft 410 kts 18°
2026-05-04 12:06 50.34177 -1.52581 19036 ft 410 kts 18°
2026-05-04 12:06 50.36905 -1.51276 19037 ft 410 kts 18°
2026-05-04 12:06 50.39629 -1.49964 19043 ft 410 kts 18°
2026-05-04 12:06 50.42352 -1.48641 19040 ft 410 kts 18°
2026-05-04 12:07 50.45080 -1.47306 19043 ft 410 kts 18°
2026-05-04 12:07 50.47813 -1.45960 19031 ft 410 kts 18°
2026-05-04 12:07 50.50537 -1.44616 19039 ft 410 kts 18°
2026-05-04 12:07 50.53251 -1.43220 19033 ft 410 kts 22°
2026-05-04 12:08 50.55818 -1.41297 19039 ft 409 kts 30°
2026-05-04 12:08 50.58315 -1.39150 19030 ft 409 kts 30°
2026-05-04 12:08 50.60815 -1.37004 19026 ft 409 kts 30°
2026-05-04 12:08 50.63314 -1.34860 19023 ft 409 kts 30°
2026-05-04 12:09 50.65815 -1.32714 19020 ft 409 kts 30°
2026-05-04 12:09 50.68283 -1.30595 19019 ft 409 kts 30°
2026-05-04 12:09 50.70785 -1.28444 19018 ft 409 kts 30°
2026-05-04 12:09 50.73288 -1.26287 19017 ft 410 kts 30°
2026-05-04 12:10 50.75770 -1.24145 19010 ft 402 kts 30°
2026-05-04 12:10 50.78174 -1.21952 19010 ft 397 kts 32°
2026-05-04 12:10 50.80518 -1.19619 19009 ft 396 kts 34°
2026-05-04 12:10 50.82814 -1.17215 19009 ft 396 kts 35°
2026-05-04 12:11 50.85093 -1.14780 19009 ft 395 kts 35°
2026-05-04 12:11 50.87372 -1.12348 18980 ft 395 kts 35°
2026-05-04 12:11 50.89664 -1.09926 18390 ft 396 kts 35°
2026-05-04 12:11 50.91973 -1.07511 17067 ft 401 kts 34°
2026-05-04 12:12 50.94335 -1.05060 15433 ft 410 kts 34°
2026-05-04 12:12 50.96758 -1.02555 14184 ft 424 kts 33°
2026-05-04 12:12 50.99228 -1.00000 13324 ft 429 kts 34°
2026-05-04 12:12 51.01484 -0.97056 12170 ft 415 kts 47°
2026-05-04 12:13 51.03407 -0.93696 10898 ft 407 kts 49°
2026-05-04 12:14 51.14431 -0.73990 10043 ft 305 kts 49°
2026-05-04 12:15 51.15825 -0.71498 9806 ft 299 kts 49°
2026-05-04 12:15 51.17201 -0.69037 9614 ft 296 kts 49°
2026-05-04 12:15 51.18548 -0.66626 9310 ft 294 kts 49°
2026-05-04 12:15 51.19900 -0.64202 8995 ft 292 kts 49°
2026-05-04 12:16 51.21243 -0.61793 8673 ft 290 kts 49°
2026-05-04 12:16 51.22578 -0.59397 8364 ft 288 kts 49°
2026-05-04 12:16 51.23911 -0.57000 8049 ft 288 kts 49°
2026-05-04 12:16 51.25249 -0.54592 7736 ft 289 kts 49°
2026-05-04 12:17 51.26580 -0.52192 7480 ft 286 kts 49°
2026-05-04 12:17 51.27874 -0.49858 7262 ft 280 kts 49°
2026-05-04 12:17 51.29146 -0.47562 7141 ft 271 kts 49°
2026-05-04 12:17 51.30302 -0.45252 7029 ft 261 kts 60°
2026-05-04 12:18 51.30987 -0.42653 7020 ft 248 kts 76°
2026-05-04 12:18 51.31422 -0.40001 7019 ft 246 kts 76°
2026-05-04 12:18 51.31862 -0.37352 7031 ft 246 kts 76°
2026-05-04 12:18 51.32301 -0.34705 7022 ft 246 kts 76°
2026-05-04 12:19 51.32735 -0.32091 7019 ft 246 kts 76°
2026-05-04 12:19 51.33175 -0.29448 7031 ft 246 kts 76°
2026-05-04 12:19 51.33615 -0.26799 7020 ft 247 kts 76°
2026-05-04 12:19 51.34062 -0.24132 6929 ft 251 kts 76°
2026-05-04 12:20 51.34524 -0.21409 6575 ft 252 kts 76°
2026-05-04 12:20 51.34985 -0.18699 6290 ft 251 kts 76°
2026-05-04 12:20 51.35444 -0.16008 5995 ft 249 kts 76°
2026-05-04 12:20 51.35944 -0.13364 5660 ft 249 kts 64°
2026-05-04 12:21 51.37054 -0.11304 5366 ft 246 kts 31°
2026-05-04 12:21 51.38663 -0.10546 5069 ft 243 kts 358°
2026-05-04 12:21 51.40345 -0.10738 4743 ft 243 kts 356°
2026-05-04 12:21 51.42031 -0.10808 4429 ft 242 kts 359°
2026-05-04 12:22 51.43703 -0.10809 4144 ft 236 kts
2026-05-04 12:22 51.45328 -0.10808 3704 ft 232 kts 358°
2026-05-04 12:22 51.46821 -0.11549 3554 ft 221 kts 323°
2026-05-04 12:22 51.47708 -0.13404 3540 ft 206 kts 285°
2026-05-04 12:23 51.47831 -0.15662 3443 ft 204 kts 269°
2026-05-04 12:23 51.47815 -0.17923 3216 ft 202 kts 269°
2026-05-04 12:23 51.47807 -0.20175 2957 ft 202 kts 270°
2026-05-04 12:23 51.47803 -0.22409 2688 ft 204 kts 270°
2026-05-04 12:24 51.47800 -0.24694 2411 ft 206 kts 271°
2026-05-04 12:24 51.47798 -0.26979 2165 ft 204 kts 270°
2026-05-04 12:24 51.47795 -0.29246 1858 ft 202 kts 271°
2026-05-04 12:24 51.47791 -0.31471 1581 ft 198 kts 272°
2026-05-04 12:25 51.47787 -0.33654 1318 ft 192 kts 271°
2026-05-04 12:25 51.47783 -0.35708 1059 ft 175 kts 270°
2026-05-04 12:25 51.47779 -0.37555 859 ft 158 kts 271°
2026-05-04 12:25 51.47775 -0.39274 640 ft 151 kts 271°
2026-05-04 12:26 51.47772 -0.40967 504 ft 164 kts 272°
2026-05-04 12:26 51.47773 -0.42841 1207 ft 169 kts 275°
2026-05-04 12:26 51.48182 -0.44616 1614 ft 180 kts 314°
2026-05-04 12:26 51.49310 -0.45607 1872 ft 198 kts 353°
2026-05-04 12:27 51.50690 -0.45212 2321 ft 210 kts 31°
2026-05-04 12:27 51.51710 -0.43526 2844 ft 217 kts 63°
2026-05-04 12:27 51.52052 -0.41201 2960 ft 215 kts 87°
2026-05-04 12:27 51.52065 -0.38800 2977 ft 215 kts 90°
2026-05-04 12:28 51.52031 -0.36402 2980 ft 215 kts 91°
2026-05-04 12:28 51.51990 -0.34002 2982 ft 215 kts 91°
2026-05-04 12:28 51.52004 -0.31606 2983 ft 214 kts 89°
2026-05-04 12:28 51.51981 -0.29225 2982 ft 214 kts 91°
2026-05-04 12:29 51.51940 -0.26827 2981 ft 214 kts 91°
2026-05-04 12:29 51.51899 -0.24470 2986 ft 211 kts 91°
2026-05-04 12:29 51.51854 -0.22139 2870 ft 208 kts 94°
2026-05-04 12:29 51.51396 -0.19987 2737 ft 205 kts 128°
2026-05-04 12:30 51.50245 -0.18729 2609 ft 203 kts 167°
2026-05-04 12:30 51.48884 -0.19000 2520 ft 201 kts 212°
2026-05-04 12:30 51.48000 -0.20691 2481 ft 202 kts 251°
2026-05-04 12:30 51.47792 -0.22911 2479 ft 202 kts 270°
2026-05-04 12:31 51.47794 -0.25172 2314 ft 203 kts 271°
2026-05-04 12:31 51.47796 -0.27433 2109 ft 202 kts 271°
2026-05-04 12:31 51.47794 -0.29690 1808 ft 202 kts 271°
2026-05-04 12:31 51.47791 -0.31937 1518 ft 199 kts 271°
2026-05-04 12:32 51.47787 -0.34080 1258 ft 182 kts 270°
2026-05-04 12:32 51.47776 -0.37700 820 ft 150 kts 271°
2026-05-04 12:32 51.47783 -0.39345 635 ft 146 kts 271°
2026-05-04 12:33 51.47772 -0.40961 438 ft 144 kts 272°
2026-05-04 12:33 51.47770 -0.42563 249 ft 144 kts 271°
2026-05-04 12:33 51.47765 -0.44160 87 ft 135 kts 271°
2026-05-04 12:33 51.47767 -0.45387 87 ft 87 kts 270°
2026-05-04 12:34 51.47762 -0.46127 86 ft 54 kts 268°
2026-05-04 12:34 51.47738 -0.46578 92 ft 30 kts 252°
2026-05-04 12:34 51.47683 -0.46764 89 ft 12 kts 243°
2026-05-04 12:34 51.47649 -0.46856 87 ft 10 kts 226°
2026-05-04 12:35 51.47586 -0.46925 90 ft 10 kts 240°
2026-05-04 12:35 51.47583 -0.47059 89 ft 15 kts 270°
2026-05-04 12:35 51.47582 -0.47243 86 ft 18 kts 270°
2026-05-04 12:35 51.47581 -0.47453 90 ft 20 kts 270°
2026-05-04 12:36 51.47581 -0.47694 88 ft 23 kts 269°
2026-05-04 12:36 51.47579 -0.47946 90 ft 19 kts 269°
2026-05-04 12:36 51.47580 -0.48149 87 ft 13 kts 269°
2026-05-04 12:36 51.47579 -0.48307 90 ft 15 kts 269°
2026-05-04 12:37 51.47578 -0.48441 88 ft 9 kts 268°
2026-05-04 12:37 51.47525 -0.48475 87 ft 10 kts 178°
2026-05-04 12:37 51.47488 -0.48529 89 ft 9 kts 266°
2026-05-04 12:37 51.47487 -0.48645 89 ft 11 kts 269°
2026-05-04 12:38 51.47486 -0.48747 88 ft 2 kts 263°
2026-05-04 12:38 51.47479 -0.48753 90 ft 2 kts 205°
2026-05-04 12:38 51.47451 -0.48759 88 ft 4 kts 178°
2026-05-04 12:38 51.47427 -0.48758 86 ft 2 kts 178°
2026-05-04 12:39 51.47413 -0.48757 88 ft 2 kts 179°
2026-05-04 12:39 51.47403 -0.48757 86 ft 1 kts 180°
2026-05-04 12:39 51.47400 -0.48757 86 ft 0 kts 180°
2026-05-04 12:41 51.47399 -0.48757 86 ft 0 kts 180°